{"data":{"norad_id":66818,"epoch":"2026-09-20T21:27:54.319680Z","epoch_age_seconds":52372,"freshness":"FRESH","line1":"1 66818U 25278AD  26263.89437870  .00008788  00000+0  32851-3 0  9990","line2":"2 66818  43.0012  91.9097 0001130 272.9315  87.1408 15.27578617 45062","mean_motion":15.27578617,"eccentricity":0.000113,"inclination_deg":43.0012,"raan_deg":91.9097,"arg_perigee_deg":272.9315,"mean_anomaly_deg":87.1408,"bstar":0.00032851,"rev_number":4506,"period_min":94.266834058466,"perigee_km":482.2779227455,"apogee_km":483.82855173912,"semimajor_km":6861.1902372423,"source":"CELESTRAK","updated_at":"2026-09-21T09:00:36.018960Z"}}